Location: Praha
(50.0830°N, 14.4670°E)
Time: 10:01:51
(UTC+02:00)

ISS - Pass Details

Date: 30 April 2025
Orbit: 416 x 419 km, 51.6° (Epoch: 18 May)

Event Time Altitude Azimuth Distance (km) Brightness Sun altitude
Exits shadow 03:00:21 60° 121° (ESE) 483 -3.6 -19.9°
Drops below altitude 10° 03:03:21 10° 76° (ENE) 1,497 -0.3 -19.6°
Sets 03:05:27 0° 73° (ENE) 2,363 0.8 -19.4°
